Weather History for Panama City Tyndall AFB, FL

Change the Weather History Date:

Saturday, November 24, 2012

  Actual Average Record
Temperature  
Mean Temperature 55 °F -  
Max Temperature 63 °F 68 °F 80 °F (2001)
Min Temperature 45 °F 49 °F 35 °F (2002)
Degree Days  
Heating Degree Days 10    
Growing Degree Days 5 (Base 50)    
Moisture  
Dew Point 43 °F    
Average Humidity 65    
Maximum Humidity 90    
Minimum Humidity 43    
Precipitation  
Precipitation 0.00 in - - ()
Sea Level Pressure  
Sea Level Pressure 30.15 in    
Wind  
Wind Speed 9 mph (North)    
Max Wind Speed 12 mph    
Max Gust Speed -    
Visibility 10 miles    
Events      
Averages and records for this station are not official NWS values.
T = Trace of Precipitation, MM = Missing Value Source: NWS Daily Summary

Daily Weather History Graph

Daily Weather History Graph

Search for Another Location

Airport:

Trip Planner

Search our weather history database for the weather conditions in past years. The results will help you decide how hot, cold, wet, or windy it might be!

Date:

Astronomy

Nov. 24, 2012 Rise Set
Actual Time 6:15 AM CST 4:42 PM CST
Civil Twilight 5:49 AM CST 5:08 PM CST
Nautical Twilight 5:20 AM CST 5:37 PM CST
Astronomical Twilight 4:51 AM CST 6:06 PM CST
Moon 2:16 PM CST (11/24) 2:44 AM CST (11/24)
Length of Visible Light 11h 18m
Length of Day
10h 27m
Waxing Gibbous, 87% of the Moon is Illuminated
Nov 24
Waxing Gibbous
Nov 28
Full
Dec 6
Last Quarter
Dec 13
New
Dec 19
First Quarter

Hourly Weather History & Observations

Time (CST) Temp. Windchill Dew Point Humidity Pressure Visibility Wind Dir Wind Speed Gust Speed Precip Events Conditions
12:55 AM 60.4 °F - 56.7 °F 87% 30.12 in 10.0 mi North 10.4 mph - N/A   Clear
1:55 AM 59.2 °F - 56.1 °F 90% 30.11 in 10.0 mi North 10.4 mph - N/A   Clear
2:55 AM 57.6 °F - 52.5 °F 83% 30.12 in 10.0 mi NNW 11.5 mph - N/A   Clear
3:55 AM 55.6 °F - 49.8 °F 81% 30.12 in 10.0 mi North 8.1 mph - N/A   Clear
4:55 AM 54.0 °F - 50.2 °F 87% 30.15 in 10.0 mi NNW 10.4 mph - N/A   Clear
5:55 AM 52.0 °F - 49.1 °F 90% 30.17 in 10.0 mi North 10.4 mph - N/A   Clear
6:55 AM 51.3 °F - 47.5 °F 87% 30.19 in 10.0 mi North 8.1 mph - N/A   Clear
7:55 AM 52.7 °F - 45.9 °F 78% 30.21 in 10.0 mi North 10.4 mph - N/A   Clear
8:55 AM 54.7 °F - 45.1 °F 70% 30.22 in 10.0 mi NNE 6.9 mph - N/A   Clear
9:55 AM 57.6 °F - 43.3 °F 59% 30.20 in 10.0 mi North 8.1 mph - N/A   Clear
10:55 AM 59.4 °F - 43.9 °F 57% 30.18 in 10.0 mi NNW 10.4 mph - N/A   Clear
11:55 AM 61.7 °F - 43.9 °F 52% 30.14 in 10.0 mi North 10.4 mph - N/A   Clear
12:55 PM 63.1 °F - 43.0 °F 48% 30.12 in 10.0 mi NNW 11.5 mph - N/A   Clear
1:55 PM 63.9 °F - 41.9 °F 45% 30.11 in 10.0 mi NNW 11.5 mph - N/A   Clear
2:55 PM 63.7 °F - 40.6 °F 43% 30.11 in 10.0 mi North 9.2 mph - N/A   Clear
3:55 PM 61.9 °F - 41.0 °F 46% 30.12 in 10.0 mi NNW 10.4 mph - N/A   Clear
4:55 PM 56.1 °F - 39.2 °F 53% 30.13 in 10.0 mi North 5.8 mph - N/A   Clear
5:55 PM 52.2 °F - 38.7 °F 60% 30.15 in 10.0 mi North 6.9 mph - N/A   Clear
6:55 PM 51.6 °F - 37.0 °F 58% 30.16 in 10.0 mi North 6.9 mph - N/A   Clear
7:55 PM 51.6 °F - 36.0 °F 55% 30.17 in 10.0 mi North 8.1 mph - N/A   Clear
8:55 PM 49.8 °F - 34.7 °F 56% 30.17 in 10.0 mi North 8.1 mph - N/A   Clear
9:55 PM 48.4 °F - 34.7 °F 59% 30.17 in 10.0 mi North 6.9 mph - N/A   Clear
10:55 PM 47.5 °F - 34.2 °F 60% 30.17 in 10.0 mi North 6.9 mph - N/A   Clear
11:55 PM 45.7 °F 42.7 °F 33.8 °F 63% 30.16 in 10.0 mi North 5.8 mph - N/A   Clear